STARLINK-1404, 45686

Orbit data source: Space-Track

STARLINK-1404, 45686 is a payload satellite owned by SpaceX/Seattle (US) in LEO that was launched on Thu, 04 Jun 2020 UTC via an FALCON 9 launch vehicle from the Air Force Eastern Test Range (AFETR). Payload-class satellites include a variety of spacecraft equipped with specific instruments for various scientific and technological missions. These include communications satellites like Starlink; space stations such as the ISS; scientific satellites like the Hubble; Earth observation satellites from companies like Planet Labs, Umbra, and HawkEye 360; GPS; miniature CubeSats for education and research; and military/defense satellites.

Loading next visibility...
Identifier
45686, 2020-035AF
Orbit
LEO
Country
Flag of USUS
Related business
Manufacturer
SpaceX/Seattle
Mission
Partially operational Commercial Communications
Bus & Motor
STARLINK, Unknown motor
Mass
260 kg wet, ~248 kg dry
Launch date (UTC)
2020-06-04 (6 years ago)
Launch vehicle
FALCON 9
Launch site
Air Force Eastern Test Range (AFETR)
Object type
Payload
Rocket body
Debris
Shape & HBR
Box + 1 Pan, 10.1 m
Radar Cross Section
13.562 m², Large (>1 m²)

Expand to show TLE details & history
Last TLE update: 1 day ago

TLE from 1 day ago
0 STARLINK-1404
1 45686U 20035AF  26145.05904740  .00051140  00000-0  11545-2 0  9995
2 45686  53.1586  50.8220 0004969 111.4124 248.7412 15.42723271330725
Epoch: 2026-05-25T01:25Z
TLE epoch observation values (Epoch: 2026-05-25T01:25:01.695Z)
Latitude
-0.00007°
Longitude
146.91261°
Altitude
440.21 km
Speed
7.648 km/s
True Right ascension
03h 23m 17s
True Declination
0° 00' 00"
Sunlit
Object was in daylight at epoch
Visualization orbit readout
Latitude
Unknown
Longitude
Unknown
Altitude
Unknown
Speed
Unknown
Apparent Right ascension
Unknown
Apparent Declination
Unknown
Sunlit
N/A
Visualization observer readout
Local Sidereal Time
13:13:28
Azimuth
Unknown
Elevation
Unknown
Doppler factor
Unknown
Orbital elements
Apogee altitude
441.721 km
Perigee altitude
434.947 km
Semi-major axis
6,816.471 km
Eccentricity
0.0005
Inclination
53.1586°
RAAN
50.822°
Arg. of periapsis
111.4124°
True anomaly
248.68815°
Mean anomaly
248.7412°
Eccentric anomaly
248.71467°
Mean motion
3.85659 °/min
Orbital period
93.35 mins
BSTAR
0.0011545
Loading maneuver chart data...
Computing Atmospheric mass density...

Documentation

Showing up to 5 results
|